| time (UTC) | temp C | wind direction | speed KPH | gust KPH | rain 1hr cm | rain 24hr cm | rain mn cm | humidity % | barometer mb |
| 20260505024502 | 15 | 180 | 12.9 | 19.3 | 0.00 | 0.00 | 0.00 | 49 | 1009.7 |
| 20260505024002 | 15 | 181 | 9.7 | 25.7 | 0.00 | 0.00 | 0.00 | 49 | 1009.8 |
| 20260505023501 | 16 | 196 | 11.3 | 25.7 | 0.00 | 0.00 | 0.00 | 49 | 1009.7 |
| 20260505023002 | 16 | 182 | 9.7 | 27.4 | 0.00 | 0.00 | 0.00 | 48 | 1009.6 |
| 20260505022502 | 16 | 179 | 14.5 | 27.4 | 0.00 | 0.00 | 0.00 | 48 | 1009.8 |
| 20260505022023 | 16 | 209 | 9.7 | 22.5 | 0.00 | 0.00 | 0.00 | 48 | 1009.8 |
| 20260505021523 | 16 | 189 | 8.0 | 22.5 | 0.00 | 0.00 | 0.00 | 48 | 1009.8 |
| 20260505021002 | 16 | 177 | 11.3 | 22.5 | 0.00 | 0.00 | 0.00 | 47 | 1009.7 |
| 20260505020523 | 16 | 184 | 9.7 | 19.3 | 0.00 | 0.00 | 0.00 | 47 | 1009.7 |
| 20260505020002 | 16 | 184 | 9.7 | 19.3 | 0.00 | 0.00 | 0.00 | 47 | 1009.7 |
| 20260505015523 | 16 | 206 | 11.3 | 19.3 | 0.00 | 0.00 | 0.00 | 47 | 1009.7 |
| 20260505015001 | 16 | 197 | 8.0 | 20.9 | 0.00 | 0.00 | 0.00 | 46 | 1009.6 |
| 20260505014502 | 16 | 204 | 9.7 | 27.4 | 0.00 | 0.00 | 0.00 | 46 | 1009.5 |
| 20260505014001 | 16 | 194 | 11.3 | 27.4 | 0.00 | 0.00 | 0.00 | 46 | 1009.4 |
| 20260505013502 | 16 | 185 | 9.7 | 27.4 | 0.00 | 0.00 | 0.00 | 46 | 1009.3 |
| 20260505013002 | 17 | 184 | 14.5 | 27.4 | 0.00 | 0.00 | 0.00 | 45 | 1009.3 |
| 20260505012501 | 17 | 207 | 11.3 | 25.7 | 0.00 | 0.00 | 0.00 | 45 | 1009.1 |
| 20260505012002 | 17 | 201 | 12.9 | 22.5 | 0.00 | 0.00 | 0.00 | 45 | 1009.1 |
| 20260505011501 | 17 | 188 | 8.0 | 22.5 | 0.00 | 0.00 | 0.00 | 45 | 1008.9 |
| 20260505011003 | 17 | 196 | 11.3 | 22.5 | 0.00 | 0.00 | 0.00 | 45 | 1008.9 |
| 20260505010501 | 17 | 197 | 9.7 | 25.7 | 0.00 | 0.00 | 0.00 | 44 | 1008.8 |
| 20260505010023 | 17 | 193 | 14.5 | 25.7 | 0.00 | 0.00 | 0.00 | 43 | 1008.6 |
| 20260505005501 | 17 | 188 | 14.5 | 25.7 | 0.00 | 0.00 | 0.00 | 43 | 1008.5 |
| 20260505005002 | 17 | 207 | 12.9 | 32.2 | 0.00 | 0.00 | 0.00 | 43 | 1008.4 |
| 20260505004544 | 17 | 192 | 14.5 | 32.2 | 0.00 | 0.00 | 0.00 | 43 | 1008.2 |
| 20260505004002 | 17 | 190 | 14.5 | 27.4 | 0.00 | 0.00 | 0.00 | 42 | 1008.1 |
| 20260505003502 | 18 | 202 | 14.5 | 29.0 | 0.00 | 0.00 | 0.00 | 42 | 1007.9 |
| 20260505003002 | 18 | 197 | 16.1 | 29.0 | 0.00 | 0.00 | 0.00 | 42 | 1007.8 |
| 20260505002502 | 18 | 207 | 9.7 | 22.5 | 0.00 | 0.00 | 0.00 | 41 | 1007.7 |
| 20260505002002 | 18 | 208 | 11.3 | 25.7 | 0.00 | 0.00 | 0.00 | 40 | 1007.4 |
| 20260505001501 | 18 | 206 | 11.3 | 25.7 | 0.00 | 0.00 | 0.00 | 40 | 1007.2 |
| 20260505001002 | 18 | 194 | 12.9 | 27.4 | 0.00 | 0.00 | 0.00 | 39 | 1007.2 |
| 20260505000502 | 19 | 197 | 14.5 | 30.6 | 0.00 | 0.00 | 0.00 | 38 | 1007.0 |
| 20260505000002 | 19 | 193 | 14.5 | 30.6 | 0.00 | 0.00 | 0.00 | 37 | 1006.9 |
| 20260504235502 | 20 | 190 | 14.5 | 24.1 | 0.00 | 0.00 | 0.00 | 35 | 1006.8 |
| 20260504235002 | 19 | 195 | 4.8 | 9.7 | 0.00 | 0.00 | 0.00 | 35 | 1006.6 |
| 20260504234523 | 20 | 206 | 4.8 | 9.7 | 0.00 | 0.00 | 0.00 | 34 | 1006.6 |
| 20260504234023 | 20 | 197 | 6.4 | 24.1 | 0.00 | 0.00 | 0.00 | 34 | 1006.6 |
| 20260504233501 | 20 | 202 | 9.7 | 24.1 | 0.00 | 0.00 | 0.00 | 34 | 1006.4 |
| 20260504233002 | 20 | 214 | 4.8 | 9.7 | 0.00 | 0.00 | 0.00 | 34 | 1006.5 |
| 20260504232502 | 20 | 225 | 3.2 | 9.7 | 0.00 | 0.00 | 0.00 | 34 | 1006.4 |
| 20260504232002 | 20 | 195 | 4.8 | 14.5 | 0.00 | 0.00 | 0.00 | 33 | 1006.3 |
| 20260504231502 | 20 | 216 | 3.2 | 14.5 | 0.00 | 0.00 | 0.00 | 33 | 1006.3 |
| 20260504231002 | 20 | 199 | 4.8 | 16.1 | 0.00 | 0.00 | 0.00 | 33 | 1006.2 |
| 20260504230502 | 21 | 220 | 8.0 | 17.7 | 0.00 | 0.00 | 0.00 | 32 | 1006.2 |
| 20260504230023 | 21 | 205 | 4.8 | 25.7 | 0.00 | 0.00 | 0.00 | 32 | 1006.1 |
| 20260504225502 | 21 | 212 | 12.9 | 30.6 | 0.00 | 0.00 | 0.00 | 32 | 1006.1 |
| 20260504225002 | 21 | 200 | 8.0 | 30.6 | 0.00 | 0.00 | 0.00 | 32 | 1006.1 |
| 20260504224501 | 21 | 199 | 9.7 | 22.5 | 0.00 | 0.00 | 0.00 | 31 | 1006.0 |
| 20260504224002 | 21 | 215 | 11.3 | 20.9 | 0.00 | 0.00 | 0.00 | 31 | 1006.1 |
| 20260504223501 | 21 | 210 | 8.0 | 16.1 | 0.00 | 0.00 | 0.00 | 31 | 1006.0 |
| 20260504223002 | 21 | 206 | 6.4 | 25.7 | 0.00 | 0.00 | 0.00 | 31 | 1006.0 |
| 20260504222502 | 21 | 194 | 6.4 | 25.7 | 0.00 | 0.00 | 0.00 | 31 | 1005.9 |
| 20260504222002 | 21 | 227 | 6.4 | 19.3 | 0.00 | 0.00 | 0.00 | 31 | 1005.9 |
| 20260504221523 | 21 | 217 | 6.4 | 27.4 | 0.00 | 0.00 | 0.00 | 30 | 1005.9 |
| 20260504221002 | 21 | 215 | 9.7 | 27.4 | 0.00 | 0.00 | 0.00 | 30 | 1006.0 |
| 20260504220502 | 21 | 206 | 12.9 | 25.7 | 0.00 | 0.00 | 0.00 | 31 | 1006.1 |
| 20260504220002 | 21 | 206 | 9.7 | 20.9 | 0.00 | 0.00 | 0.00 | 31 | 1006.0 |
| 20260504215502 | 21 | 190 | 6.4 | 25.7 | 0.00 | 0.00 | 0.00 | 30 | 1006.1 |
| 20260504215002 | 22 | 218 | 11.3 | 32.2 | 0.00 | 0.00 | 0.00 | 30 | 1006.0 |
| 20260504214501 | 22 | 203 | 6.4 | 32.2 | 0.00 | 0.00 | 0.00 | 30 | 1005.9 |
| 20260504214023 | 22 | 221 | 9.7 | 29.0 | 0.00 | 0.00 | 0.00 | 30 | 1005.9 |
| 20260504213501 | 22 | 206 | 12.9 | 25.7 | 0.00 | 0.00 | 0.00 | 30 | 1005.9 |
| 20260504213002 | 22 | 217 | 11.3 | 24.1 | 0.00 | 0.00 | 0.00 | 30 | 1005.9 |
| 20260504212502 | 22 | 206 | 11.3 | 24.1 | 0.00 | 0.00 | 0.00 | 29 | 1005.9 |
| 20260504212001 | 22 | 253 | 6.4 | 20.9 | 0.00 | 0.00 | 0.00 | 30 | 1005.9 |
| 20260504211502 | 22 | 198 | 9.7 | 20.9 | 0.00 | 0.00 | 0.00 | 30 | 1005.9 |
| 20260504211001 | 22 | 230 | 8.0 | 37.0 | 0.00 | 0.00 | 0.00 | 29 | 1005.9 |
| 20260504210502 | 22 | 206 | 9.7 | 37.0 | 0.00 | 0.00 | 0.00 | 29 | 1005.8 |
| 20260504210003 | 22 | 205 | 12.9 | 35.4 | 0.00 | 0.00 | 0.00 | 30 | 1006.0 |
| 20260504205502 | 22 | 201 | 9.7 | 19.3 | 0.00 | 0.00 | 0.00 | 29 | 1005.9 |
| 20260504205023 | 22 | 208 | 11.3 | 20.9 | 0.00 | 0.00 | 0.00 | 29 | 1006.0 |
| 20260504204502 | 22 | 211 | 8.0 | 29.0 | 0.00 | 0.00 | 0.00 | 29 | 1005.8 |
| 20260504204002 | 22 | 197 | 14.5 | 29.0 | 0.00 | 0.00 | 0.00 | 28 | 1006.0 |
| 20260504203502 | 22 | 195 | 11.3 | 29.0 | 0.00 | 0.00 | 0.00 | 28 | 1005.9 |
| 20260504203023 | 22 | 198 | 14.5 | 29.0 | 0.00 | 0.00 | 0.00 | 28 | 1006.0 |
| 20260504202501 | 22 | 201 | 8.0 | 24.1 | 0.00 | 0.00 | 0.00 | 30 | 1005.9 |
| 20260504202002 | 22 | 210 | 11.3 | 32.2 | 0.00 | 0.00 | 0.00 | 28 | 1005.9 |
| 20260504201522 | 22 | 202 | 14.5 | 32.2 | 0.00 | 0.00 | 0.00 | 28 | 1005.9 |
| 20260504201002 | 22 | 230 | 11.3 | 27.4 | 0.00 | 0.00 | 0.00 | 29 | 1005.9 |
| 20260504200502 | 22 | 207 | 12.9 | 27.4 | 0.00 | 0.00 | 0.00 | 28 | 1006.0 |
| 20260504200024 | 22 | 217 | 8.0 | 25.7 | 0.00 | 0.00 | 0.00 | 29 | 1006.0 |
| 20260504195501 | 23 | 217 | 12.9 | 25.7 | 0.00 | 0.00 | 0.00 | 27 | 1006.2 |
| 20260504195023 | 22 | 217 | 8.0 | 20.9 | 0.00 | 0.00 | 0.00 | 27 | 1006.1 |
| 20260504194523 | 22 | 196 | 9.7 | 29.0 | 0.00 | 0.00 | 0.00 | 27 | 1006.3 |
| 20260504194002 | 22 | 202 | 14.5 | 32.2 | 0.00 | 0.00 | 0.00 | 27 | 1006.2 |
| 20260504193502 | 22 | 204 | 12.9 | 32.2 | 0.00 | 0.00 | 0.00 | 27 | 1006.0 |
| 20260504193023 | 22 | 208 | 16.1 | 30.6 | 0.00 | 0.00 | 0.00 | 27 | 1006.2 |
| 20260504192503 | 22 | 213 | 6.4 | 30.6 | 0.00 | 0.00 | 0.00 | 27 | 1006.2 |
| 20260504192002 | 22 | 195 | 14.5 | 33.8 | 0.00 | 0.00 | 0.00 | 26 | 1006.2 |
| 20260504191503 | 22 | 215 | 14.5 | 35.4 | 0.00 | 0.00 | 0.00 | 27 | 1006.1 |
| 20260504191002 | 22 | 229 | 9.7 | 35.4 | 0.00 | 0.00 | 0.00 | 27 | 1006.2 |
| 20260504190501 | 22 | 228 | 9.7 | 27.4 | 0.00 | 0.00 | 0.00 | 27 | 1006.3 |
| 20260504190002 | 22 | 194 | 11.3 | 25.7 | 0.00 | 0.00 | 0.00 | 27 | 1006.4 |
| 20260504185502 | 22 | 214 | 11.3 | 25.7 | 0.00 | 0.00 | 0.00 | 28 | 1006.3 |
| 20260504185023 | 22 | 216 | 8.0 | 30.6 | 0.00 | 0.00 | 0.00 | 28 | 1006.3 |
| 20260504184502 | 22 | 219 | 14.5 | 30.6 | 0.00 | 0.00 | 0.00 | 27 | 1006.5 |
| 20260504184003 | 22 | 219 | 11.3 | 29.0 | 0.00 | 0.00 | 0.00 | 27 | 1006.5 |
| 20260504183502 | 22 | 248 | 9.7 | 29.0 | 0.00 | 0.00 | 0.00 | 27 | 1006.3 |
| 20260504183023 | 22 | 234 | 9.7 | 29.0 | 0.00 | 0.00 | 0.00 | 26 | 1006.5 |
| 20260504182502 | 22 | 210 | 11.3 | 38.6 | 0.00 | 0.00 | 0.00 | 26 | 1006.4 |
| 20260504182002 | 22 | 194 | 12.9 | 38.6 | 0.00 | 0.00 | 0.00 | 28 | 1006.4 |
| 20260504181501 | 22 | 204 | 8.0 | 22.5 | 0.00 | 0.00 | 0.00 | 28 | 1006.4 |
| 20260504181002 | 22 | 206 | 11.3 | 27.4 | 0.00 | 0.00 | 0.00 | 29 | 1006.3 |
| 20260504180502 | 21 | 215 | 14.5 | 37.0 | 0.00 | 0.00 | 0.00 | 27 | 1006.5 |
| 20260504180023 | 22 | 187 | 14.5 | 37.0 | 0.00 | 0.00 | 0.00 | 28 | 1006.5 |
| 20260504175544 | 22 | 193 | 17.7 | 25.7 | 0.00 | 0.00 | 0.00 | 27 | 1006.5 |
| 20260504175002 | 22 | 213 | 12.9 | 24.1 | 0.00 | 0.00 | 0.00 | 28 | 1006.7 |
| 20260504174502 | 22 | 198 | 11.3 | 24.1 | 0.00 | 0.00 | 0.00 | 28 | 1006.7 |
| 20260504174002 | 21 | 199 | 9.7 | 32.2 | 0.00 | 0.00 | 0.00 | 29 | 1006.8 |
| 20260504173502 | 21 | 211 | 12.9 | 32.2 | 0.00 | 0.00 | 0.00 | 30 | 1007.0 |
| 20260504173002 | 21 | 225 | 9.7 | 29.0 | 0.00 | 0.00 | 0.00 | 30 | 1006.8 |
| 20260504172502 | 21 | 198 | 16.1 | 41.8 | 0.00 | 0.00 | 0.00 | 28 | 1006.9 |
| 20260504172002 | 21 | 236 | 9.7 | 41.8 | 0.00 | 0.00 | 0.00 | 29 | 1007.0 |
| 20260504171502 | 21 | 214 | 17.7 | 35.4 | 0.00 | 0.00 | 0.00 | 28 | 1007.2 |
| 20260504171002 | 21 | 210 | 12.9 | 35.4 | 0.00 | 0.00 | 0.00 | 29 | 1007.0 |
| 20260504170502 | 21 | 207 | 14.5 | 40.2 | 0.00 | 0.00 | 0.00 | 29 | 1007.2 |
| 20260504151002 | 18 | 211 | 8.0 | 32.2 | 0.00 | 0.00 | 0.00 | 36 | 1008.2 |
| 20260504150502 | 18 | 207 | 17.7 | 30.6 | 0.00 | 0.00 | 0.00 | 34 | 1008.4 |
| 20260504141002 | 17 | 248 | 8.0 | 30.6 | 0.00 | 0.00 | 0.00 | 38 | 1008.7 |
| 20260504140523 | 17 | 220 | 9.7 | 20.9 | 0.00 | 0.00 | 0.00 | 37 | 1008.8 |
| 20260504130523 | 15 | 204 | 12.9 | 32.2 | 0.00 | 0.00 | 0.00 | 41 | 1009.2 |
| 20260504110502 | 8 | 209 | 3.2 | 8.0 | 0.00 | 0.00 | 0.00 | 55 | 1010.1 |
| 20260504100502 | 7 | 219 | 4.8 | 12.9 | 0.00 | 0.00 | 0.00 | 59 | 1010.1 |
| 20260504082002 | 7 | 249 | 0.0 | 4.8 | 0.00 | 0.00 | 0.00 | 58 | 1010.1 |
| 20260504081502 | 7 | 202 | 0.0 | 6.4 | 0.00 | 0.00 | 0.00 | 58 | 1010.1 |
| 20260504081002 | 7 | 214 | 3.2 | 6.4 | 0.00 | 0.00 | 0.00 | 58 | 1010.0 |
| 20260504080502 | 7 | 204 | 3.2 | 8.0 | 0.00 | 0.00 | 0.00 | 58 | 1010.0 |
| 20260504050502 | 5 | 213 | 1.6 | 6.4 | 0.00 | 0.00 | 0.00 | 59 | 1009.8 |
| 20260504050002 | 5 | 231 | 1.6 | 6.4 | 0.00 | 0.00 | 0.00 | 58 | 1009.9 |
| 20260504045502 | 5 | 244 | 1.6 | 6.4 | 0.00 | 0.00 | 0.00 | 59 | 1010.0 |
| 20260504045002 | 5 | 222 | 3.2 | 6.4 | 0.00 | 0.00 | 0.00 | 59 | 1009.8 |
| 20260504044502 | 5 | 207 | 1.6 | 4.8 | 0.00 | 0.00 | 0.00 | 59 | 1009.9 |
| 20260504044002 | 5 | 218 | 3.2 | 4.8 | 0.00 | 0.00 | 0.00 | 60 | 1009.9 |
| 20260504043502 | 5 | 221 | 3.2 | 6.4 | 0.00 | 0.00 | 0.00 | 59 | 1009.9 |
| 20260504043002 | 5 | 235 | 1.6 | 9.7 | 0.00 | 0.00 | 0.00 | 60 | 1009.8 |
| 20260504042501 | 5 | 214 | 1.6 | 9.7 | 0.00 | 0.00 | 0.00 | 61 | 1009.8 |
| 20260504042002 | 4 | 232 | 1.6 | 4.8 | 0.00 | 0.00 | 0.00 | 62 | 1009.9 |
| 20260504041525 | 4 | 233 | 1.6 | 3.2 | 0.00 | 0.00 | 0.00 | 62 | 1009.9 |
| 20260504041023 | 5 | 221 | 1.6 | 3.2 | 0.00 | 0.00 | 0.00 | 60 | 1009.9 |
| 20260504040502 | 5 | 245 | 1.6 | 3.2 | 0.00 | 0.00 | 0.00 | 60 | 1009.8 |
| 20260504040003 | 5 | 234 | 1.6 | 3.2 | 0.00 | 0.00 | 0.00 | 60 | 1009.7 |
| 20260504035502 | 5 | 256 | 0.0 | 1.6 | 0.00 | 0.00 | 0.00 | 60 | 1009.6 |
| 20260504035023 | 5 | 256 | 0.0 | 1.6 | 0.00 | 0.00 | 0.00 | 58 | 1009.6 |
| 20260504034502 | 5 | 256 | 0.0 | 3.2 | 0.00 | 0.00 | 0.00 | 59 | 1009.5 |
| 20260504034002 | 5 | 257 | 1.6 | 3.2 | 0.00 | 0.00 | 0.00 | 59 | 1009.5 |
| 20260504033502 | 5 | 260 | 1.6 | 3.2 | 0.00 | 0.00 | 0.00 | 59 | 1009.4 |
| 20260504033002 | 5 | 265 | 1.6 | 3.2 | 0.00 | 0.00 | 0.00 | 59 | 1009.4 |
| 20260504032502 | 5 | 220 | 0.0 | 3.2 | 0.00 | 0.00 | 0.00 | 59 | 1009.4 |
| 20260504032002 | 5 | 220 | 1.6 | 3.2 | 0.00 | 0.00 | 0.00 | 58 | 1009.5 |
| 20260504031502 | 5 | 274 | 0.0 | 3.2 | 0.00 | 0.00 | 0.00 | 59 | 1009.5 |
| 20260504031003 | 5 | 274 | 1.6 | 3.2 | 0.00 | 0.00 | 0.00 | 58 | 1009.5 |
| 20260504030502 | 5 | 274 | 1.6 | 3.2 | 0.00 | 0.00 | 0.00 | 58 | 1009.5 |
| 20260504030023 | 5 | 274 | 1.6 | 3.2 | 0.00 | 0.00 | 0.00 | 58 | 1009.6 |
| 20260504025502 | 5 | 259 | 1.6 | 3.2 | 0.00 | 0.00 | 0.00 | 58 | 1009.5 |
| 20260504025023 | 6 | 259 | 1.6 | 4.8 | 0.00 | 0.00 | 0.00 | 57 | 1009.5 |